UR5RFF-13 Weather Reports


time (UTC)temp
C
wind
direction
speed
KPH
gust
KPH
rain 1hr
cm
rain 24hr
cm
rain mn
cm
humidity
%
barometer
mb
20260906110038 13 261 9.7 20.9 0.00 0.30 0.03 84 1014.8
20260906105022 13 288 12.9 17.7 0.00 0.30 0.03 83 1014.9
20260906104105 13 273 8.0 16.1 0.00 0.30 0.03 83 1015.0
20260906103044 13 268 9.7 17.7 0.00 0.30 0.03 84 1014.9
20260906102029 12 255 6.4 11.3 0.00 0.30 0.03 84 1014.8
20260906101114 12 286 6.4 9.7 0.00 0.30 0.03 85 1014.6
20260906100053 12 273 9.7 20.9 0.00 0.30 0.03 86 1014.6
20260906095038 12 252 11.3 17.7 0.00 0.30 0.03 89 1014.6
20260906094120 12 288 12.9 17.7 0.00 0.30 0.03 91 1014.5
20260906093059 12 258 8.0 12.9 0.00 0.30 0.03 88 1014.3
20260906092044 12 260 6.4 17.7 0.00 0.30 0.03 89 1014.4
20260906091026 12 251 6.4 12.9 0.00 0.30 0.03 90 1014.3
20260906090104 12 256 8.0 16.1 0.00 0.30 0.03 93 1014.2
20260906085049 12 243 8.0 17.7 0.00 0.30 0.03 93 1014.3
20260906084028 12 250 6.4 9.7 0.03 0.30 0.03 93 1014.2
20260906083107 12 274 11.3 19.3 0.03 0.30 0.03 92 1014.2
20260906082052 12 261 8.0 12.9 0.03 0.30 0.03 91 1014.1
20260906081034 12 225 12.9 20.9 0.03 0.30 0.03 91 1014.0
20260906080113 12 244 9.7 17.7 0.03 0.30 0.03 88 1014.0
20260906075058 12 245 11.3 16.1 0.03 0.30 0.03 89 1013.9
20260906074041 12 249 9.7 12.9 0.00 0.28 0.00 85 1014.0
20260906073120 12 266 4.8 11.3 0.00 0.28 0.00 80 1014.0
20260906072105 12 257 6.4 12.9 0.00 0.28 0.00 78 1013.9
20260906071050 13 265 12.9 19.3 0.00 0.28 0.00 74 1013.8
20260906070028 13 266 11.3 17.7 0.00 0.28 0.00 73 1013.7
20260906065114 13 270 9.7 17.7 0.00 0.28 0.00 73 1013.7
20260906064056 13 270 12.9 24.1 0.00 0.28 0.00 72 1013.6
20260906063034 13 298 17.7 24.1 0.00 0.28 0.00 72 1013.6
20260906062119 13 270 12.9 22.5 0.00 0.28 0.00 72 1013.5
20260906061104 13 260 6.4 12.9 0.00 0.28 0.00 72 1013.3
20260906060043 13 270 12.9 22.5 0.00 0.28 0.00 73 1013.3
20260906055028 13 270 12.9 17.7 0.00 0.28 0.00 72 1013.2
20260906054110 13 270 9.7 14.5 0.00 0.28 0.00 71 1013.3
20260906053049 13 244 8.0 14.5 0.00 0.28 0.00 73 1013.1
20260906052033 12 257 8.0 12.9 0.00 0.28 0.00 73 1013.1
20260906051118 12 270 11.3 16.1 0.00 0.28 0.00 77 1013.1
20260906050057 12 240 11.3 17.7 0.00 0.28 0.00 78 1013.1
20260906045042 12 230 12.9 17.7 0.00 0.28 0.00 78 1013.1
20260906044024 12 259 8.0 16.1 0.00 0.28 0.00 78 1013.2
20260906043102 11 236 6.4 12.9 0.00 0.28 0.00 80 1013.2
20260906042047 11 239 6.4 9.7 0.00 0.28 0.00 80 1013.3
20260906041029 11 225 4.8 8.0 0.00 0.28 0.00 82 1013.1
20260906040109 11 235 4.8 6.4 0.00 0.28 0.00 84 1013.3
20260906035054 10 242 4.8 9.7 0.00 0.28 0.00 87 1013.3
20260906034035 10 229 4.8 6.4 0.00 0.28 0.00 87 1013.2
20260906033114 10 229 3.2 6.4 0.00 0.28 0.00 87 1013.2
20260906032059 10 225 6.4 11.3 0.00 0.28 0.00 87 1013.2
20260906031045 10 241 4.8 6.4 0.00 0.28 0.00 88 1013.0
20260906030024 10 225 6.4 9.7 0.00 0.28 0.00 87 1013.2
20260906025107 10 225 4.8 6.4 0.00 0.28 0.00 87 1013.0
20260906024047 10 257 3.2 9.7 0.00 0.28 0.00 86 1013.1
20260906023023 10 225 3.2 6.4 0.00 0.28 0.00 85 1012.9
20260906022105 10 244 4.8 6.4 0.00 0.28 0.00 84 1012.8
20260906021048 11 237 4.8 6.4 0.00 0.28 0.00 84 1012.9
20260906020026 11 241 6.4 8.0 0.00 0.28 0.00 84 1012.9
20260906015111 11 225 4.8 8.0 0.00 0.28 0.00 84 1012.8
20260906014051 11 225 3.2 6.4 0.00 0.28 0.00 83 1012.8
20260906013029 11 225 4.8 8.0 0.00 0.28 0.00 83 1013.0
20260906012113 11 228 4.8 8.0 0.00 0.28 0.00 83 1013.1
20260906011056 11 233 3.2 8.0 0.00 0.28 0.00 83 1013.0
20260906010035 11 231 6.4 8.0 0.00 0.28 0.00 82 1013.2
20260906005020 11 264 3.2 9.7 0.00 0.28 0.00 82 1013.2
20260906004103 11 248 4.8 8.0 0.00 0.28 0.00 82 1013.2
20260906003042 11 238 4.8 8.0 0.00 0.28 0.00 82 1013.3
20260906002026 11 228 3.2 4.8 0.00 0.28 0.00 81 1013.2
20260906001111 11 234 3.2 6.4 0.00 0.28 0.00 81 1013.3
20260906000050 11 225 3.2 6.4 0.00 0.28 0.00 81 1013.3
20260905235035 11 228 4.8 6.4 0.00 0.28 0.00 81 1013.4
20260905234113 11 225 3.2 6.4 0.00 0.28 0.00 80 1013.3
20260905233051 11 237 4.8 8.0 0.00 0.28 0.00 80 1013.3
20260905232036 12 233 4.8 8.0 0.00 0.28 0.00 80 1013.2
20260905231121 12 228 4.8 8.0 0.00 0.28 0.00 79 1013.3
20260905230100 12 240 3.2 6.4 0.00 0.28 0.00 79 1013.1
20260905225045 12 225 3.2 6.4 0.00 0.28 0.00 78 1013.1
20260905224027 12 225 3.2 6.4 0.00 0.28 0.00 77 1013.0
20260905223106 12 249 3.2 6.4 0.00 0.28 0.00 74 1012.9
20260905222050 12 231 4.8 6.4 0.00 0.28 0.00 74 1012.8
20260905221032 12 242 4.8 9.7 0.00 0.28 0.00 73 1012.7
20260905220111 12 244 3.2 8.0 0.00 0.28 0.00 73 1012.8
20260905215057 12 225 4.8 6.4 0.00 0.28 0.00 73 1012.9
20260905214039 12 233 4.8 6.4 0.00 0.28 0.00 72 1013.0
20260905213118 12 225 3.2 8.0 0.00 0.28 0.00 72 1012.7
20260905212102 12 225 3.2 6.4 0.00 0.28 0.00 72 1012.8
20260905211048 13 225 1.6 3.2 0.00 0.28 0.00 71 1012.8
20260905210027 13 225 3.2 4.8 0.00 0.28 0.00 70 1012.7
20260905205112 13 225 3.2 3.2 0.00 0.28 0.28 70 1012.8
20260905204054 13 225 4.8 8.0 0.00 0.28 0.28 70 1012.7
20260905203032 13 225 3.2 6.4 0.00 0.28 0.28 70 1012.6
20260905202117 13 229 1.6 6.4 0.00 0.28 0.28 70 1012.5
20260905201102 13 225 4.8 6.4 0.00 0.28 0.28 69 1012.5
20260905200040 14 225 3.2 6.4 0.00 0.28 0.28 68 1012.4
20260905195025 14 227 4.8 8.0 0.00 0.28 0.28 67 1012.4
20260905194107 14 261 4.8 8.0 0.00 0.28 0.28 66 1012.2
20260905193046 15 225 6.4 9.7 0.00 0.28 0.28 65 1012.4
20260905192031 15 255 4.8 6.4 0.00 0.28 0.28 63 1012.5
20260905191117 15 235 8.0 11.3 0.00 0.28 0.28 63 1012.7
20260905190055 15 256 8.0 12.9 0.00 0.28 0.28 64 1012.6
20260905185040 15 257 8.0 14.5 0.00 0.28 0.28 66 1012.5
20260905184122 15 270 3.2 6.4 0.00 0.28 0.28 65 1012.5
20260905183101 15 270 1.6 3.2 0.00 0.28 0.28 64 1012.4
20260905182045 15 270 3.2 4.8 0.00 0.28 0.28 63 1012.6
20260905181026 16 270 3.2 4.8 0.00 0.28 0.28 61 1012.5
20260905180105 16 270 1.6 3.2 0.00 0.28 0.28 60 1012.4
20260905175050 16 270 3.2 6.4 0.00 0.28 0.28 58 1012.3
20260905174032 17 270 4.8 8.0 0.00 0.28 0.28 56 1012.3
20260905173111 17 270 3.2 6.4 0.00 0.28 0.28 55 1012.4
20260905172055 17 270 3.2 6.4 0.00 0.28 0.28 53 1012.2
20260905171037 17 270 6.4 9.7 0.00 0.28 0.28 50 1012.1
20260905170116 17 270 8.0 14.5 0.00 0.28 0.28 50 1011.9
20260905165101 18 270 6.4 12.9 0.00 0.28 0.28 49 1011.8
20260905164044 18 287 8.0 12.9 0.00 0.28 0.28 49 1011.8
20260905163022 18 270 9.7 12.9 0.00 0.28 0.28 49 1011.7
20260905162108 19 255 14.5 20.9 0.00 0.28 0.28 47 1011.7
20260905161052 19 274 11.3 17.7 0.00 0.28 0.28 46 1011.4
20260905160030 20 284 11.3 24.1 0.00 0.28 0.28 45 1011.4
20260905155116 20 304 14.5 24.1 0.00 0.28 0.28 45 1011.2
20260905154057 20 260 14.5 20.9 0.00 0.28 0.28 46 1011.2
20260905153035 20 291 20.9 30.6 0.00 0.28 0.28 46 1011.1
20260905152020 20 291 16.1 32.2 0.00 0.28 0.28 51 1010.9
20260905151105 20 265 11.3 24.1 0.00 0.28 0.28 64 1010.9
20260905150044 20 234 16.1 22.5 0.00 0.28 0.28 63 1010.6
20260905145030 20 251 16.1 24.1 0.00 0.28 0.28 66 1010.6
20260905144112 19 251 9.7 16.1 0.00 0.28 0.28 71 1010.6
20260905143051 19 253 14.5 24.1 0.00 0.28 0.28 70 1010.6
20260905142035 19 232 14.5 25.7 0.00 0.28 0.28 71 1010.5
20260905141119 19 225 14.5 22.5 0.00 0.28 0.28 71 1010.4
20260905140057 19 242 17.7 25.7 0.10 0.28 0.28 71 1010.3
20260905135042 18 248 16.1 25.7 0.13 0.28 0.28 71 1010.3
20260905134122 18 239 14.5 25.7 0.13 0.28 0.28 73 1010.3
20260905133101 18 242 8.0 14.5 0.13 0.28 0.28 78 1010.1
20260905132046 17 225 12.9 17.7 0.13 0.28 0.28 82 1010.4
20260905131028 17 235 14.5 22.5 0.13 0.28 0.28 84 1010.3
20260905130108 18 225 9.7 14.5 0.03 0.18 0.18 77 1010.2
20260905125053 18 263 6.4 11.3 0.00 0.15 0.15 74 1009.9
20260905124035 18 259 6.4 11.3 0.00 0.15 0.15 74 1009.9
20260905123114 18 234 9.7 12.9 0.03 0.15 0.15 73 1009.8
20260905122059 17 259 8.0 11.3 0.05 0.15 0.15 73 1010.1
20260905121040 16 270 6.4 9.7 0.15 0.15 0.15 79 1010.1
20260905120119 16 266 6.4 11.3 0.15 0.15 0.15 80 1010.0
20260905115104 16 228 3.2 6.4 0.15 0.15 0.15 80 1010.2
20260905114046 16 270 8.0 14.5 0.15 0.15 0.15 80 1010.1
20260905113025 16 270 8.0 14.5 0.13 0.13 0.13 80 1010.1
20260905112111 19 303 32.2 45.1 0.10 0.10 0.10 69 1010.2
20260905111055 22 245 20.9 33.8 0.00 0.00 0.00 55 1009.0